Regional Weather Roundup
Issued by NWS Wakefield, VA

Home | Current Version | Previous Version | Graphics & Text | Print | Product List | Glossary Off
Versions: 1 2 3 4 5 6 7 8 9 10 11 12 13 14 15 16 17 18 19 20 21 22 23 24 25 26 27 28 29 30 31 32 33 34 35 36 37 38 39 40 41 42 43 44 45 46 47 48 49 50

000
ASUS41 KAKQ 242115
RWRAKQ

REGIONAL WEATHER ROUNDUP
NATIONAL WEATHER SERVICE WAKEFIELD VA
500 PM EDT WED AUG 24 2016

Note: "fair" indicates few or no clouds below 12,000 feet with no
significant weather and/or obstructions to visibility. * = Denotes
station may not report precipitation (e.g., rain,snow,etc.),
thunder or fog.

VAZ042-051-052>054-056-242200-
NORTHERN VIRGINIA

CITY           SKY/WX    TMP DP  RH WIND       PRES   REMARKS
WASH NATIONAL  PTSUNNY   86  66  51 S13       30.19F
DULLES         PTSUNNY   84  65  52 S9        30.19F
FORT BELVOIR   SUNNY     83  64  51 S6        30.19F
QUANTICO       MOSUNNY   84  67  56 S12       30.20F
FREDERICKSBRG*   N/A     85  67  53 S8        30.19S
STAFFORD*      MOSUNNY   84  63  49 SE6       30.23F
WARRENTON      MOSUNNY   85  61  44 S7        30.19F
CULPEPER*      MOSUNNY   86  68  55 S8        30.19F
MANASSAS*      MOSUNNY   86  66  51 S9        30.19F
LEESBURG*      CLOUDY    88  68  51 S9        30.19F
WINCHESTER     SUNNY     84  64  51 SE12      30.17F
FRONT ROYAL*   FAIR      84  68  58 S7        30.16F
LURAY*         FAIR      86  64  48 SW5       30.18F
$$

VAZ048-049-060>072-079>083-242200-
CENTRAL AND SOUTH CENTRAL VIRGINIA

CITY           SKY/WX    TMP DP  RH WIND       PRES   REMARKS
RICHMOND       PTSUNNY   83  60  45 SE6       30.20F
CHESTERFIELD*  FAIR      88  55  33 SW6       30.22F
PETERSBURG*    MOSUNNY   86  61  42 SW6       30.22S
HANOVER        MOSUNNY   85  62  46 VRB3      30.22F
TAPPAHANNOCK*  MOSUNNY   82  62  50 SE3       30.22F
QUINTON*       FAIR      85  62  45 SW3       30.21F
CHARLOTTSVILLE MOSUNNY   86  66  51 S9        30.19F
GORDONSVILLE*  NOT AVBL
ORANGE*          N/A     86  64  48 SE8       30.21F
LOUISA*        CLOUDY    84  70  61 CALM      30.19F
BUMPASS*       FAIR      82  68  62 CALM      30.20F
FARMVILLE*     CLOUDY    85  65  51 S8        30.19F
CREWE*         FAIR      83  64  52 S5        30.21F
FORT PICKETT*  NOT AVBL
CHASE CITY*    FAIR      84  60  44 S5        30.22F
CLARKSVILLE*   FAIR      84  64  51 E8        30.22F
SOUTH HILL*    MOSUNNY   80  67  64 CALM      30.28F
LAWRENCEVILLE* FAIR      82  64  55 S5        30.22F
EMPORIA*       PTSUNNY   82  61  47 E3        30.23F
$$

VAZ088>098-242200-
SOUTHEAST VIRGINIA

CITY           SKY/WX    TMP DP  RH WIND       PRES   REMARKS
NORFOLK        SUNNY     80  64  58 NE8       30.23F
VIRGINIA BEACH MOSUNNY   85  63  47 E8        30.22F
NORFOLK NAVAL  MOSUNNY   81  61  50 NE7       30.24F
WEST POINT*    MOSUNNY   83  59  43 SE8       30.22F
SALUDA*        FAIR      81  60  48 E7        30.22F
NEWPORT NEWS   SUNNY     82  60  47 SE9G18    30.22F
LANGLEY AFB    MOSUNNY   81  61  50 SE7       30.22F
FORT EUSTIS    SUNNY     84  62  47 S9        30.20F
WILLIAMSBURG*  SUNNY     88  61  40 S8        30.23S
HR EXEC AP*    FAIR      86  61  42 E3        30.23F
FRANKLIN*      MOSUNNY   84  60  44 E6        30.22F
US460-WAKEFLD  MOSUNNY   83  61  47 CALM      30.22F
$$

VAZ020-022-025-037-045-242200-
WEST CENTRAL AND SOUTHWEST VIRGINIA

CITY           SKY/WX    TMP DP  RH WIND       PRES   REMARKS
STAUNTON*      SUNNY     83  65  54 S7        30.22F
WAYNESBORO*    FAIR      81  66  60 SE10      30.22F
HOT SPRINGS VA CLOUDY    73  64  73 S5        30.33F
LYNCHBURG      MOSUNNY   83  66  56 S8        30.23F
DANVILLE       PTSUNNY   83  68  60 VRB5      30.22F
SOUTH BOSTON*  FAIR      86  63  45 E3        30.21F
MARTINSVILLE   MOSUNNY   83  68  60 S3        30.25F
ROANOKE        CLOUDY    82  69  64 SE10      30.23F
BLACKSBURG     CLOUDY    78  67  69 CALM      30.30F
DUBLIN*        CLOUDY    81  66  59 S3        30.28F
MARION*        MOSUNNY   78  66  65 W7        30.31F
HILLSVILLE*    CLOUDY    73  69  88 CALM      30.30F
RICHLANDS*     FAIR      78  69  75 W6        30.29F
WISE*          PTSUNNY   81  59  47 SW10      30.29F
ABINGDON*      PTSUNNY   82  67  61 W6        30.27F
$$

MDZ021>025-VAZ099-100-242200-
SOUTHERN MARYLAND AND THE DELMARVA PENINSULA

CITY           SKY/WX    TMP DP  RH WIND       PRES   REMARKS
PATUXENT RIVER MOSUNNY   81  60  48 S10       30.21F
BAY BRIDGE APT SUNNY     86  63  45 S9        30.20F
LEONARDTOWN    SUNNY     81  61  50 SE6       30.22F
DOVER          SUNNY     80  67  63 E13       30.19F
GEORGETOWN     SUNNY     81  60  48 SE13      30.22F
EASTON         MOSUNNY   84  68  58 SW10      30.24F
CAMBRIDGE      SUNNY     81  59  47 S3        30.21F
SALISBURY      SUNNY     82  61  48 SE12      30.21F
OCEAN CITY     SUNNY     79  62  56 S6        30.23F
WALLOPS ISLAND SUNNY     80  56  43 SE9       30.23F
ACCOMACK*      SUNNY     80  61  52 S7        30.23F
$$

NCZ012>017-030>032-242200-
NORTH CENTRAL AND EASTERN NORTH CAROLINA

CITY           SKY/WX    TMP DP  RH WIND       PRES   REMARKS
ROANOKE RAPIDS FAIR      81  64  57 CALM      30.22F
RALEIGH        CLOUDY    84  62  47 E3        30.22F
ELIZABETH CITY MOSUNNY   83  66  56 NE8       30.22F
AHOSKIE*       NOT AVBL
EDENTON*       SUNNY     84  66  53 E8        30.21F
CURRITUCK*       N/A     81  65  59 NE7       30.23F
KILL DEVIL HLS SUNNY     84  73  70 NE7       30.20F
MANTEO         SUNNY     80  71  72 NE10      30.22F
CAPE HATTERAS  PTSUNNY   81  71  71 VRB3      30.20F
TARBORO*       FAIR      85  64  48 CALM      30.22F
GOLDSBORO      CLOUDY    85  61  44 NE9       30.19F
WASHINGTON     MOSUNNY   82  60  46 NE5       30.21F
GREENVILLE     PTSUNNY   86  61  42 N8        30.21F
NEW BERN       PTSUNNY   85  62  46 VRB6      30.20F
WILMINGTON     PTSUNNY   85  62  46 NE14      30.19F
$$

VAZ048-242200-
ELSEWHERE

CITY           SKY/WX    TMP DP  RH WIND       PRES   REMARKS
HARRISBURG PA  CLOUDY    86  66  51 S7        30.17F
BALTIMORE      PTSUNNY   84  63  49 VRB6      30.18F
ANNAPOLIS      SUNNY     82  66  58 SE12      30.20F
ANDREWS AFB    SUNNY     83  64  52 S12       30.19F
PHILADELPHIA   MOSUNNY   85  59  41 SW8       30.20F
HENDERSON NC   MOSUNNY   80  63  56 S3        30.23F
GREENSBORO     CLOUDY    84  62  47 W5        30.22F
ROCKY MOUNT    MOSUNNY   84  64  50 E5        30.22F
$$

VAZ100-242200-
MARINE

STATION/POSITION TIME  TEMP    WIND        PRES    WAVE   SWELL
                       AIR SEA DIR/SP/G            HT/PER HT/PER
                 (UTC) (F)     (DEG/KT/KT) (MB)    (FT/S) (FT/S)
BRANDYWINE LGT   2000   74     160/ 11/ 12   N/A
CAPE MAY NJ      2000   78 74  160/  7/  9 1023.4F
LEWES DE         2000   78 76  130/  8/ 13 1023.8F
OCEAN-CITY-INLET 2000   78 74  180/  5/  8 1024.8F
WACHAPREAGUE VA  2000   77 83  120/  5/  8 1024.2F
THOMAS POINT MD  2100   80 82  160/ 12/ 13 1023.9F
GOOSES REEF MD   2100   81 83  160/ 12/ 14 1023.4F   1/ 3
COVE POINT MD    2000   78     180/ 12/ 14 1024.0F
SOLOMONS ISLAND  2018   80 85  130/ 10/ 12   N/A
BISHOPS HEAD MD  2000   79 86  190/  7/  9 1024.2F
PINEY POINT MD   2000          150/ 12/ 13   N/A
POTOMAC MD       2100   80 84  170/ 10/ 12 1022.3F   1
CAMBRIDGE MD     2000   82 83  180/  6/  9 1022.6F
LEWISETTA VA     2000   79 83  120/ 10/ 12 1023.2F
RAPPAHANNOCK LGT 2000          230/  2/  3 1024.7F
STINGRAY PT      2100   80 86   90/  8/ 12 1023.9F   0
YORK RVR RNG VA  2000   78     140/  7/ 10 1023.6F
YORKTOWN VA      2000   79 83   90/  8/ 10 1023.6F
JAMESTOWN VA     2100   82 87  130/  8/ 12   N/A     0
DOMINION TERM VA 2000   79     100/  7/  9 1024.0F
KIPTOPEKE VA     2000      79  120/  9/ 13   N/A
CHES BAY BRIDGE  2000   76 78   50/  8/ 10 1023.9F
CAPE HENRY VA    2000   76      50/  8/  9   N/A
WILLOUBY STN VA  2000   77      90/  8/  9   N/A
CAPE HENRY BUOY  2012      79                N/A     2/13   2/13
1ST LANDING BUOY 2100   78 78  110/  6/  8 1023.4F   1/ 3
CAPE CHARLES BUO 2026      79                N/A     2/13
OFFSHORE WE BUOY 2021      80                N/A     2/12   2/12
64NM E OF VA BCH 2050   79 82   70/  8/ 10 1023.2F   3/11   2/11
DUCK PIER NC     2000   77 80   10/  8/ 10 1023.0F
44100 DUCK FRF   2005      81                N/A     2/ 4
44056 DUCK FRF   2011      77                N/A     2/12
OREGON INLET NC  2000   80 78   20/ 10/ 12 1023.2F
HATTERAS NC      2000   79 79   10/  9/ 11 1022.6F
DIAMOND SHLS NC  2050   81 85   90/ 10/ 12 1022.5F   3/ 5   3/ 5
CAPE LOOKOUT NC  2100   79      10/ 11/ 13 1021.9F
$$



USA.gov is the U.S. government's official web portal to all federal, state and local government web resources and services.